Time,TemperatureF,DewpointF,PressureIn,WindDirection,WindDirectionDegrees,WindSpeedMPH,WindSpeedGustMPH,Humidity,HourlyPrecipIn,Conditions,Clouds,dailyrainin,SoftwareType,DateUTC
2013-05-13 00:05:00,46.9,33.7,29.83,West,280,1.0,3.0,60,0.00,,,0.00,Wunderground v.1.13,2013-05-13 04:05:00,
2013-05-13 00:10:00,46.9,33.7,29.83,WNW,287,1.0,1.0,60,0.00,,,0.00,Wunderground v.1.13,2013-05-13 04:10:00,
2013-05-13 00:15:00,46.7,33.5,29.83,WNW,287,0.0,3.0,60,0.00,,,0.00,Wunderground v.1.13,2013-05-13 04:15:00,
2013-05-13 00:20:00,46.6,33.0,29.83,West,272,1.0,3.0,59,0.00,,,0.00,Wunderground v.1.13,2013-05-13 04:20:00,
2013-05-13 00:25:00,46.6,33.4,29.83,WSW,257,1.0,1.0,60,0.00,,,0.00,Wunderground v.1.13,2013-05-13 04:25:00,
2013-05-13 00:30:00,46.4,33.3,29.83,West,267,1.0,1.0,60,0.00,,,0.00,Wunderground v.1.13,2013-05-13 04:30:00,
2013-05-13 00:35:00,46.3,33.6,29.83,West,266,1.0,1.0,61,0.00,,,0.00,Wunderground v.1.13,2013-05-13 04:35:00,
2013-05-13 00:40:00,46.2,33.5,29.84,West,265,0.0,3.0,61,0.00,,,0.00,Wunderground v.1.13,2013-05-13 04:40:00,
2013-05-13 00:50:00,45.9,33.6,29.84,West,266,0.0,5.0,62,0.00,,,0.00,Wunderground v.1.13,2013-05-13 04:50:00,
2013-05-13 00:55:00,45.8,33.5,29.84,West,265,1.0,3.0,62,0.00,,,0.00,Wunderground v.1.13,2013-05-13 04:55:00,
2013-05-13 01:00:00,45.8,34.3,29.84,West,265,1.0,1.0,64,0.00,,,0.00,Wunderground v.1.13,2013-05-13 05:00:00,
2013-05-13 01:05:00,45.6,33.7,29.84,West,270,0.0,4.0,63,0.00,,,0.00,Wunderground v.1.13,2013-05-13 05:05:00,
2013-05-13 01:15:00,45.2,34.1,29.84,West,264,1.0,3.0,65,0.00,,,0.00,Wunderground v.1.13,2013-05-13 05:15:00,
2013-05-13 01:25:00,45.0,33.9,29.84,West,265,1.0,1.0,65,0.00,,,0.00,Wunderground v.1.13,2013-05-13 05:25:00,
2013-05-13 01:30:00,44.9,33.8,29.85,West,264,1.0,2.0,65,0.00,,,0.00,Wunderground v.1.13,2013-05-13 05:30:00,
2013-05-13 01:35:00,44.8,33.7,29.85,West,264,1.0,2.0,65,0.00,,,0.00,Wunderground v.1.13,2013-05-13 05:35:00,
2013-05-13 01:45:00,44.7,33.3,29.84,West,280,1.0,2.0,64,0.00,,,0.00,Wunderground v.1.13,2013-05-13 05:45:00,
2013-05-13 01:50:00,44.6,33.2,29.84,West,278,1.0,1.0,64,0.00,,,0.00,Wunderground v.1.13,2013-05-13 05:50:00,
2013-05-13 01:55:00,44.5,33.1,29.84,WSW,250,1.0,1.0,64,0.00,,,0.00,Wunderground v.1.13,2013-05-13 05:55:00,
2013-05-13 02:00:00,44.5,33.1,29.85,WSW,251,1.0,1.0,64,0.00,,,0.00,Wunderground v.1.13,2013-05-13 06:00:00,
2013-05-13 02:10:00,44.4,32.6,29.85,WNW,283,1.0,1.0,63,0.00,,,0.00,Wunderground v.1.13,2013-05-13 06:10:00,
2013-05-13 02:15:00,44.4,31.8,29.85,SW,216,1.0,4.0,61,0.00,,,0.00,Wunderground v.1.13,2013-05-13 06:15:00,
2013-05-13 02:20:00,44.5,31.9,29.85,West,279,2.0,2.0,61,0.00,,,0.00,Wunderground v.1.13,2013-05-13 06:20:00,
2013-05-13 02:25:00,44.7,31.7,29.85,NW,307,2.0,4.0,60,0.00,,,0.00,Wunderground v.1.13,2013-05-13 06:25:00,
2013-05-13 02:35:00,44.6,31.6,29.85,West,281,1.0,4.0,60,0.00,,,0.00,Wunderground v.1.13,2013-05-13 06:35:00,
2013-05-13 02:40:00,44.7,31.2,29.85,WSW,244,2.0,4.0,59,0.00,,,0.00,Wunderground v.1.13,2013-05-13 06:40:00,
2013-05-13 02:45:00,44.7,30.8,29.86,WSW,254,2.0,2.0,58,0.00,,,0.00,Wunderground v.1.13,2013-05-13 06:45:00,
2013-05-13 02:55:00,44.7,31.2,29.86,WNW,284,2.0,2.0,59,0.00,,,0.00,Wunderground v.1.13,2013-05-13 06:55:00,
2013-05-13 03:00:00,44.7,31.2,29.86,SW,224,2.0,4.0,59,0.00,,,0.00,Wunderground v.1.13,2013-05-13 07:00:00,
2013-05-13 03:05:00,44.7,31.2,29.86,NW,318,2.0,2.0,59,0.00,,,0.00,Wunderground v.1.13,2013-05-13 07:05:00,
2013-05-13 03:15:00,44.7,30.8,29.86,WSW,238,1.0,4.0,58,0.00,,,0.00,Wunderground v.1.13,2013-05-13 07:15:00,
2013-05-13 03:20:00,44.7,31.7,29.86,West,263,1.0,1.0,60,0.00,,,0.00,Wunderground v.1.13,2013-05-13 07:20:00,
2013-05-13 03:30:00,44.2,31.2,29.86,WSW,237,1.0,4.0,60,0.00,,,0.00,Wunderground v.1.13,2013-05-13 07:30:00,
2013-05-13 03:35:00,44.0,30.6,29.86,SW,234,1.0,4.0,59,0.00,,,0.00,Wunderground v.1.13,2013-05-13 07:35:00,
2013-05-13 03:40:00,44.0,30.6,29.86,West,265,1.0,4.0,59,0.00,,,0.00,Wunderground v.1.13,2013-05-13 07:40:00,
2013-05-13 03:45:00,44.1,31.1,29.86,West,273,1.0,1.0,60,0.00,,,0.00,Wunderground v.1.13,2013-05-13 07:45:00,
2013-05-13 03:50:00,44.0,31.0,29.86,North,355,2.0,2.0,60,0.00,,,0.00,Wunderground v.1.13,2013-05-13 07:50:00,
2013-05-13 04:00:00,44.0,31.0,29.86,SSW,207,3.0,3.0,60,0.00,,,0.00,Wunderground v.1.13,2013-05-13 08:00:00,
2013-05-13 04:05:00,44.0,30.6,29.86,WSW,248,2.0,4.0,59,0.00,,,0.00,Wunderground v.1.13,2013-05-13 08:05:00,
2013-05-13 04:10:00,43.9,30.5,29.87,West,279,2.0,4.0,59,0.00,,,0.00,Wunderground v.1.13,2013-05-13 08:10:00,
2013-05-13 04:20:00,43.5,30.9,29.87,NW,319,2.0,5.0,61,0.00,,,0.00,Wunderground v.1.13,2013-05-13 08:20:00,
2013-05-13 04:25:00,43.4,31.2,29.88,NW,322,1.0,1.0,62,0.00,,,0.00,Wunderground v.1.13,2013-05-13 08:25:00,
2013-05-13 04:30:00,43.2,31.1,29.88,WSW,249,1.0,4.0,62,0.00,,,0.00,Wunderground v.1.13,2013-05-13 08:30:00,
2013-05-13 04:40:00,43.0,30.9,29.88,West,269,1.0,1.0,62,0.00,,,0.00,Wunderground v.1.13,2013-05-13 08:40:00,
2013-05-13 04:45:00,42.9,30.4,29.88,WSW,254,2.0,2.0,61,0.00,,,0.00,Wunderground v.1.13,2013-05-13 08:45:00,
2013-05-13 04:50:00,42.9,30.8,29.88,West,274,2.0,2.0,62,0.00,,,0.00,Wunderground v.1.13,2013-05-13 08:50:00,
2013-05-13 04:55:00,42.9,30.8,29.88,SSW,207,1.0,9.0,62,0.00,,,0.00,Wunderground v.1.13,2013-05-13 08:55:00,
2013-05-13 05:00:00,42.9,30.8,29.88,SW,214,1.0,5.0,62,0.00,,,0.00,Wunderground v.1.13,2013-05-13 09:00:00,
2013-05-13 05:10:00,42.5,30.8,29.88,WSW,251,1.0,4.0,63,0.00,,,0.00,Wunderground v.1.13,2013-05-13 09:10:00,
2013-05-13 05:15:00,42.4,30.7,29.89,WNW,288,1.0,1.0,63,0.00,,,0.00,Wunderground v.1.13,2013-05-13 09:15:00,
2013-05-13 05:20:00,42.3,30.6,29.89,West,271,1.0,1.0,63,0.00,,,0.00,Wunderground v.1.13,2013-05-13 09:20:00,
2013-05-13 05:25:00,42.2,30.5,29.89,WSW,253,1.0,4.0,63,0.00,,,0.00,Wunderground v.1.13,2013-05-13 09:25:00,
2013-05-13 05:35:00,42.0,30.7,29.89,NW,309,1.0,1.0,64,0.00,,,0.00,Wunderground v.1.13,2013-05-13 09:35:00,
2013-05-13 05:40:00,41.9,30.6,29.90,WNW,297,1.0,1.0,64,0.00,,,0.00,Wunderground v.1.13,2013-05-13 09:40:00,
2013-05-13 05:45:00,41.8,30.5,29.90,WNW,290,1.0,4.0,64,0.00,,,0.00,Wunderground v.1.13,2013-05-13 09:45:00,
2013-05-13 05:55:00,41.6,30.7,29.90,WNW,286,1.0,5.0,65,0.00,,,0.00,Wunderground v.1.13,2013-05-13 09:55:00,
2013-05-13 06:00:00,41.6,31.1,29.90,WNW,286,1.0,1.0,66,0.00,,,0.00,Wunderground v.1.13,2013-05-13 10:00:00,
2013-05-13 06:05:00,41.5,31.0,29.91,WNW,286,0.0,4.0,66,0.00,,,0.00,Wunderground v.1.13,2013-05-13 10:05:00,
2013-05-13 06:10:00,41.4,31.3,29.91,WNW,286,0.0,4.0,67,0.00,,,0.00,Wunderground v.1.13,2013-05-13 10:10:00,
2013-05-13 06:15:00,41.3,31.2,29.91,WNW,286,0.0,4.0,67,0.00,,,0.00,Wunderground v.1.13,2013-05-13 10:15:00,
2013-05-13 06:25:00,41.2,31.8,29.91,WNW,286,0.0,4.0,69,0.00,,,0.00,Wunderground v.1.13,2013-05-13 10:25:00,
2013-05-13 06:30:00,41.0,32.0,29.92,WNW,285,0.0,4.0,70,0.00,,,0.00,Wunderground v.1.13,2013-05-13 10:30:00,
2013-05-13 06:35:00,41.1,31.7,29.92,WNW,286,0.0,4.0,69,0.00,,,0.00,Wunderground v.1.13,2013-05-13 10:35:00,
2013-05-13 06:40:00,41.3,32.2,29.92,WNW,285,0.0,4.0,70,0.00,,,0.00,Wunderground v.1.13,2013-05-13 10:40:00,
2013-05-13 06:50:00,41.7,31.9,29.93,WNW,283,1.0,1.0,68,0.00,,,0.00,Wunderground v.1.13,2013-05-13 10:50:00,
2013-05-13 06:55:00,41.9,32.1,29.93,WNW,284,1.0,1.0,68,0.00,,,0.00,Wunderground v.1.13,2013-05-13 10:55:00,
2013-05-13 07:00:00,42.1,32.7,29.93,WNW,284,1.0,1.0,69,0.00,,,0.00,Wunderground v.1.13,2013-05-13 11:00:00,
2013-05-13 07:10:00,42.5,32.3,29.93,WSW,246,2.0,4.0,67,0.00,,,0.00,Wunderground v.1.13,2013-05-13 11:10:00,
2013-05-13 07:15:00,42.9,33.1,29.93,SW,217,2.0,2.0,68,0.00,,,0.00,Wunderground v.1.13,2013-05-13 11:15:00,
2013-05-13 07:20:00,43.1,32.5,29.93,WSW,252,2.0,4.0,66,0.00,,,0.00,Wunderground v.1.13,2013-05-13 11:20:00,
2013-05-13 07:25:00,43.3,33.1,29.94,West,265,2.0,4.0,67,0.00,,,0.00,Wunderground v.1.13,2013-05-13 11:25:00,
2013-05-13 07:30:00,43.5,32.9,29.94,WSW,256,3.0,4.0,66,0.00,,,0.00,Wunderground v.1.13,2013-05-13 11:30:00,
2013-05-13 07:40:00,44.0,33.0,29.93,WSW,256,1.0,1.0,65,0.00,,,0.00,Wunderground v.1.13,2013-05-13 11:40:00,
2013-05-13 07:45:00,44.3,33.3,29.93,NW,314,1.0,6.0,65,0.00,,,0.00,Wunderground v.1.13,2013-05-13 11:45:00,
2013-05-13 07:50:00,44.6,33.2,29.93,West,280,1.0,1.0,64,0.00,,,0.00,Wunderground v.1.13,2013-05-13 11:50:00,
2013-05-13 08:00:00,45.5,33.6,29.94,WSW,239,2.0,4.0,63,0.00,,,0.00,Wunderground v.1.13,2013-05-13 12:00:00,
2013-05-13 08:05:00,45.4,32.7,29.94,SW,219,3.0,3.0,61,0.00,,,0.00,Wunderground v.1.13,2013-05-13 12:05:00,
2013-05-13 08:10:00,45.5,32.8,29.94,WNW,282,2.0,2.0,61,0.00,,,0.00,Wunderground v.1.13,2013-05-13 12:10:00,
2013-05-13 08:15:00,46.1,33.8,29.94,WSW,258,1.0,4.0,62,0.00,,,0.00,Wunderground v.1.13,2013-05-13 12:15:00,
2013-05-13 08:25:00,46.4,32.8,29.95,South,190,3.0,11.0,59,0.00,,,0.00,Wunderground v.1.13,2013-05-13 12:25:00,
2013-05-13 08:30:00,46.5,32.5,29.95,SSW,207,4.0,12.0,58,0.00,,,0.00,Wunderground v.1.13,2013-05-13 12:30:00,
2013-05-13 08:35:00,46.8,33.2,29.95,West,268,4.0,8.0,59,0.00,,,0.00,Wunderground v.1.13,2013-05-13 12:35:00,
2013-05-13 08:40:00,47.0,32.5,29.95,SW,217,4.0,5.0,57,0.00,,,0.00,Wunderground v.1.13,2013-05-13 12:40:00,
2013-05-13 08:50:00,47.8,33.3,29.96,SW,221,5.0,5.0,57,0.00,,,0.00,Wunderground v.1.13,2013-05-13 12:50:00,
2013-05-13 08:55:00,48.1,33.1,29.96,SW,234,3.0,3.0,56,0.00,,,0.00,Wunderground v.1.13,2013-05-13 12:55:00,
2013-05-13 09:00:00,48.7,35.0,29.96,SW,231,2.0,7.0,59,0.00,,,0.00,Wunderground v.1.13,2013-05-13 13:00:00,
2013-05-13 09:05:00,49.0,33.1,29.97,NNE,17,3.0,5.0,54,0.00,,,0.00,Wunderground v.1.13,2013-05-13 13:05:00,
2013-05-13 09:15:00,48.6,34.0,29.96,SW,227,4.0,4.0,57,0.00,,,0.00,Wunderground v.1.13,2013-05-13 13:15:00,
2013-05-13 09:20:00,48.7,32.8,29.97,West,269,4.0,4.0,54,0.00,,,0.00,Wunderground v.1.13,2013-05-13 13:20:00,
2013-05-13 09:25:00,49.0,32.1,29.97,SW,222,3.0,4.0,52,0.00,,,0.00,Wunderground v.1.13,2013-05-13 13:25:00,
2013-05-13 09:35:00,48.7,33.2,29.97,NNW,345,4.0,4.0,55,0.00,,,0.00,Wunderground v.1.13,2013-05-13 13:35:00,
2013-05-13 09:40:00,48.8,32.4,29.97,NW,306,3.0,3.0,53,0.00,,,0.00,Wunderground v.1.13,2013-05-13 13:40:00,
2013-05-13 09:45:00,48.7,31.8,29.97,SW,215,2.0,7.0,52,0.00,,,0.00,Wunderground v.1.13,2013-05-13 13:45:00,
2013-05-13 09:50:00,48.8,34.2,29.97,West,271,3.0,4.0,57,0.00,,,0.00,Wunderground v.1.13,2013-05-13 13:50:00,
2013-05-13 10:00:00,49.6,33.2,29.97,North,355,3.0,3.0,53,0.00,,,0.00,Wunderground v.1.13,2013-05-13 14:00:00,
2013-05-13 10:05:00,49.5,32.6,29.97,West,279,2.0,2.0,52,0.00,,,0.00,Wunderground v.1.13,2013-05-13 14:05:00,
2013-05-13 10:10:00,50.5,34.5,29.97,North,355,2.0,2.0,54,0.00,,,0.00,Wunderground v.1.13,2013-05-13 14:10:00,
2013-05-13 10:15:00,52.4,34.8,29.97,North,9,3.0,9.0,51,0.00,,,0.00,Wunderground v.1.13,2013-05-13 14:15:00,
2013-05-13 10:20:00,52.4,32.7,29.97,SW,233,3.0,4.0,47,0.00,,,0.00,Wunderground v.1.13,2013-05-13 14:20:00,
2013-05-13 10:30:00,51.4,31.8,29.98,WNW,295,4.0,4.0,47,0.00,,,0.00,Wunderground v.1.13,2013-05-13 14:30:00,
2013-05-13 10:35:00,51.2,32.2,29.98,ESE,117,4.0,4.0,48,0.00,,,0.00,Wunderground v.1.13,2013-05-13 14:35:00,
2013-05-13 10:40:00,50.3,31.8,29.97,WNW,299,4.0,4.0,49,0.00,,,0.00,Wunderground v.1.13,2013-05-13 14:40:00,
2013-05-13 10:50:00,51.5,33.5,29.97,SW,235,3.0,6.0,50,0.00,,,0.00,Wunderground v.1.13,2013-05-13 14:50:00,
2013-05-13 10:55:00,51.0,33.0,29.97,WSW,240,2.0,2.0,50,0.00,,,0.00,Wunderground v.1.13,2013-05-13 14:55:00,
2013-05-13 11:00:00,52.8,33.6,29.97,NNW,348,2.0,4.0,48,0.00,,,0.00,Wunderground v.1.13,2013-05-13 15:00:00,
2013-05-13 11:05:00,53.2,32.9,29.98,West,281,2.0,2.0,46,0.00,,,0.00,Wunderground v.1.13,2013-05-13 15:05:00,
2013-05-13 11:15:00,52.6,32.4,29.97,SSW,210,3.0,9.0,46,0.00,,,0.00,Wunderground v.1.13,2013-05-13 15:15:00,
2013-05-13 11:20:00,52.7,33.0,29.98,SSW,211,5.0,5.0,47,0.00,,,0.00,Wunderground v.1.13,2013-05-13 15:20:00,
2013-05-13 11:25:00,52.2,32.0,29.97,SW,227,5.0,5.0,46,0.00,,,0.00,Wunderground v.1.13,2013-05-13 15:25:00,
2013-05-13 11:30:00,52.8,33.1,29.97,South,178,4.0,4.0,47,0.00,,,0.00,Wunderground v.1.13,2013-05-13 15:30:00,
2013-05-13 11:40:00,53.5,34.8,29.97,NNW,340,5.0,5.0,49,0.00,,,0.00,Wunderground v.1.13,2013-05-13 15:40:00,
2013-05-13 11:45:00,52.6,33.5,29.97,SSE,168,4.0,7.0,48,0.00,,,0.00,Wunderground v.1.13,2013-05-13 15:45:00,
2013-05-13 11:50:00,51.6,31.5,29.97,SW,236,5.0,5.0,46,0.00,,,0.00,Wunderground v.1.13,2013-05-13 15:50:00,
2013-05-13 12:00:00,52.0,34.4,29.97,NW,317,3.0,3.0,51,0.00,,,0.00,Wunderground v.1.13,2013-05-13 16:00:00,
2013-05-13 12:05:00,52.9,32.1,29.97,North,350,2.0,4.0,45,0.00,,,0.00,Wunderground v.1.13,2013-05-13 16:05:00,
2013-05-13 12:10:00,54.0,33.1,29.97,West,261,2.0,4.0,45,0.00,,,0.00,Wunderground v.1.13,2013-05-13 16:10:00,
2013-05-13 12:15:00,54.6,32.5,29.97,WSW,237,3.0,4.0,43,0.00,,,0.00,Wunderground v.1.13,2013-05-13 16:15:00,
2013-05-13 12:25:00,53.7,32.3,29.97,SW,218,3.0,3.0,44,0.00,,,0.00,Wunderground v.1.13,2013-05-13 16:25:00,
2013-05-13 12:30:00,54.3,37.5,29.97,West,281,2.0,2.0,53,0.00,,,0.00,Wunderground v.1.13,2013-05-13 16:30:00,
2013-05-13 12:35:00,55.2,34.2,29.97,WSW,250,2.0,2.0,45,0.00,,,0.00,Wunderground v.1.13,2013-05-13 16:35:00,
2013-05-13 12:40:00,55.0,35.7,29.97,SW,223,2.0,6.0,48,0.00,,,0.00,Wunderground v.1.13,2013-05-13 16:40:00,
2013-05-13 12:50:00,54.8,36.0,29.97,WSW,237,5.0,5.0,49,0.00,,,0.00,Wunderground v.1.13,2013-05-13 16:50:00,
2013-05-13 12:55:00,55.2,33.1,29.97,West,268,5.0,11.0,43,0.00,,,0.00,Wunderground v.1.13,2013-05-13 16:55:00,
2013-05-13 13:00:00,54.7,31.4,29.97,SSE,161,4.0,4.0,41,0.00,,,0.00,Wunderground v.1.13,2013-05-13 17:00:00,
2013-05-13 13:10:00,55.7,33.5,29.97,WSW,241,4.0,4.0,43,0.00,,,0.00,Wunderground v.1.13,2013-05-13 17:10:00,
2013-05-13 13:15:00,55.5,32.2,29.97,WSW,250,5.0,5.0,41,0.00,,,0.00,Wunderground v.1.13,2013-05-13 17:15:00,
2013-05-13 13:20:00,54.7,31.4,29.97,West,263,5.0,5.0,41,0.00,,,0.00,Wunderground v.1.13,2013-05-13 17:20:00,
2013-05-13 13:25:00,55.1,33.0,29.97,SW,218,3.0,10.0,43,0.00,,,0.00,Wunderground v.1.13,2013-05-13 17:25:00,
2013-05-13 13:35:00,56.3,34.1,29.97,North,5,4.0,4.0,43,0.00,,,0.00,Wunderground v.1.13,2013-05-13 17:35:00,
2013-05-13 13:40:00,56.8,37.3,29.97,NW,318,2.0,2.0,48,0.00,,,0.00,Wunderground v.1.13,2013-05-13 17:40:00,
2013-05-13 13:45:00,55.9,32.5,29.97,SW,223,2.0,2.0,41,0.00,,,0.00,Wunderground v.1.13,2013-05-13 17:45:00,
2013-05-13 13:55:00,57.4,33.9,29.97,West,281,4.0,4.0,41,0.00,,,0.00,Wunderground v.1.13,2013-05-13 17:55:00,
2013-05-13 14:00:00,55.6,31.6,29.98,NNW,345,4.0,4.0,40,0.00,,,0.00,Wunderground v.1.13,2013-05-13 18:00:00,
2013-05-13 14:05:00,55.0,33.5,29.97,SW,223,4.0,15.0,44,0.00,,,0.00,Wunderground v.1.13,2013-05-13 18:05:00,
2013-05-13 14:10:00,55.4,30.8,29.97,WSW,241,5.0,5.0,39,0.00,,,0.00,Wunderground v.1.13,2013-05-13 18:10:00,
2013-05-13 14:20:00,55.3,33.2,29.97,NNW,332,2.0,2.0,43,0.00,,,0.00,Wunderground v.1.13,2013-05-13 18:20:00,
2013-05-13 14:25:00,57.0,37.0,29.97,West,265,2.0,11.0,47,0.00,,,0.00,Wunderground v.1.13,2013-05-13 18:25:00,
2013-05-13 14:30:00,56.0,34.9,29.97,SSW,202,4.0,4.0,45,0.00,,,0.00,Wunderground v.1.13,2013-05-13 18:30:00,
2013-05-13 14:35:00,57.2,33.7,29.97,NNW,342,4.0,5.0,41,0.00,,,0.00,Wunderground v.1.13,2013-05-13 18:35:00,
2013-05-13 14:45:00,55.8,33.6,29.96,North,355,1.0,8.0,43,0.00,,,0.00,Wunderground v.1.13,2013-05-13 18:45:00,
2013-05-13 14:50:00,56.0,35.5,29.96,WSW,244,2.0,2.0,46,0.00,,,0.00,Wunderground v.1.13,2013-05-13 18:50:00,
2013-05-13 14:55:00,57.3,36.7,29.96,North,355,3.0,9.0,46,0.00,,,0.00,Wunderground v.1.13,2013-05-13 18:55:00,
2013-05-13 15:00:00,57.0,33.5,29.96,West,263,3.0,3.0,41,0.00,,,0.00,Wunderground v.1.13,2013-05-13 19:00:00,
2013-05-13 15:10:00,56.2,34.0,29.96,SW,236,2.0,2.0,43,0.00,,,0.00,Wunderground v.1.13,2013-05-13 19:10:00,
2013-05-13 15:15:00,55.9,33.7,29.96,North,355,2.0,4.0,43,0.00,,,0.00,Wunderground v.1.13,2013-05-13 19:15:00,
2013-05-13 15:20:00,57.0,35.9,29.95,West,261,2.0,2.0,45,0.00,,,0.00,Wunderground v.1.13,2013-05-13 19:20:00,
2013-05-13 15:25:00,57.4,36.8,29.95,West,260,1.0,1.0,46,0.00,,,0.00,Wunderground v.1.13,2013-05-13 19:25:00,
2013-05-13 15:35:00,57.6,32.2,29.95,SW,233,2.0,4.0,38,0.00,,,0.00,Wunderground v.1.13,2013-05-13 19:35:00,
2013-05-13 15:40:00,55.4,29.5,29.95,WSW,249,3.0,3.0,37,0.00,,,0.00,Wunderground v.1.13,2013-05-13 19:40:00,
2013-05-13 15:45:00,55.1,31.8,29.95,WNW,286,2.0,2.0,41,0.00,,,0.00,Wunderground v.1.13,2013-05-13 19:45:00,
2013-05-13 15:50:00,56.4,35.3,29.95,North,355,1.0,4.0,45,0.00,,,0.00,Wunderground v.1.13,2013-05-13 19:50:00,
2013-05-13 16:00:00,58.0,36.8,29.95,North,355,1.0,4.0,45,0.00,,,0.00,Wunderground v.1.13,2013-05-13 20:00:00,
2013-05-13 16:05:00,56.6,34.9,29.95,SSW,210,1.0,4.0,44,0.00,,,0.00,Wunderground v.1.13,2013-05-13 20:05:00,
2013-05-13 16:10:00,55.6,34.0,29.95,NW,304,1.0,4.0,44,0.00,,,0.00,Wunderground v.1.13,2013-05-13 20:10:00,
2013-05-13 16:20:00,56.0,34.9,29.95,NNW,340,1.0,1.0,45,0.00,,,0.00,Wunderground v.1.13,2013-05-13 20:20:00,
2013-05-13 16:25:00,56.8,32.1,29.95,North,5,2.0,5.0,39,0.00,,,0.00,Wunderground v.1.13,2013-05-13 20:25:00,
2013-05-13 16:30:00,57.0,34.1,29.95,NW,315,3.0,3.0,42,0.00,,,0.00,Wunderground v.1.13,2013-05-13 20:30:00,
2013-05-13 16:35:00,56.6,33.8,29.95,North,349,2.0,5.0,42,0.00,,,0.00,Wunderground v.1.13,2013-05-13 20:35:00,
2013-05-13 16:45:00,55.5,34.5,29.95,NNW,340,1.0,1.0,45,0.00,,,0.00,Wunderground v.1.13,2013-05-13 20:45:00,
2013-05-13 16:50:00,55.8,33.0,29.95,NNW,340,1.0,4.0,42,0.00,,,0.00,Wunderground v.1.13,2013-05-13 20:50:00,
2013-05-13 16:55:00,56.0,35.5,29.95,West,262,2.0,2.0,46,0.00,,,0.00,Wunderground v.1.13,2013-05-13 20:55:00,
2013-05-13 17:05:00,55.3,32.6,29.95,North,355,2.0,2.0,42,0.00,,,0.00,Wunderground v.1.13,2013-05-13 21:05:00,
2013-05-13 17:10:00,54.8,33.3,29.95,WNW,300,2.0,2.0,44,0.00,,,0.00,Wunderground v.1.13,2013-05-13 21:10:00,
2013-05-13 17:15:00,55.5,33.3,29.96,NW,319,1.0,1.0,43,0.00,,,0.00,Wunderground v.1.13,2013-05-13 21:15:00,
2013-05-13 17:25:00,54.6,32.5,29.95,NNW,348,2.0,4.0,43,0.00,,,0.00,Wunderground v.1.13,2013-05-13 21:25:00,
2013-05-13 17:30:00,54.4,32.3,29.96,NNW,341,2.0,4.0,43,0.00,,,0.00,Wunderground v.1.13,2013-05-13 21:30:00,
2013-05-13 17:35:00,54.0,32.6,29.96,NNW,340,1.0,4.0,44,0.00,,,0.00,Wunderground v.1.13,2013-05-13 21:35:00,
2013-05-13 17:40:00,53.3,31.9,29.96,NW,317,1.0,4.0,44,0.00,,,0.00,Wunderground v.1.13,2013-05-13 21:40:00,
2013-05-13 17:50:00,52.9,31.6,29.96,NNW,345,1.0,4.0,44,0.00,,,0.00,Wunderground v.1.13,2013-05-13 21:50:00,
2013-05-13 17:55:00,53.2,32.4,29.96,NNW,346,1.0,4.0,45,0.00,,,0.00,Wunderground v.1.13,2013-05-13 21:55:00,
2013-05-13 18:00:00,53.0,31.6,29.97,North,5,2.0,2.0,44,0.00,,,0.00,Wunderground v.1.13,2013-05-13 22:00:00,
2013-05-13 18:10:00,52.6,32.9,29.97,North,360,1.0,4.0,47,0.00,,,0.00,Wunderground v.1.13,2013-05-13 22:10:00,
2013-05-13 18:15:00,52.3,31.0,29.97,West,281,1.0,1.0,44,0.00,,,0.00,Wunderground v.1.13,2013-05-13 22:15:00,
2013-05-13 18:20:00,52.1,31.4,29.97,NNW,340,2.0,2.0,45,0.00,,,0.00,Wunderground v.1.13,2013-05-13 22:20:00,
2013-05-13 18:25:00,52.0,30.2,29.97,NNW,340,2.0,2.0,43,0.00,,,0.00,Wunderground v.1.13,2013-05-13 22:25:00,
2013-05-13 18:35:00,51.3,30.7,29.97,North,349,1.0,4.0,45,0.00,,,0.00,Wunderground v.1.13,2013-05-13 22:35:00,
2013-05-13 18:40:00,51.3,30.7,29.97,NNW,348,1.0,4.0,45,0.00,,,0.00,Wunderground v.1.13,2013-05-13 22:40:00,
2013-05-13 18:45:00,51.2,30.6,29.97,NNW,336,1.0,1.0,45,0.00,,,0.00,Wunderground v.1.13,2013-05-13 22:45:00,
2013-05-13 18:50:00,50.8,31.3,29.98,NNW,337,1.0,4.0,47,0.00,,,0.00,Wunderground v.1.13,2013-05-13 22:50:00,
2013-05-13 19:00:00,50.4,30.9,29.98,North,355,1.0,1.0,47,0.00,,,0.00,Wunderground v.1.13,2013-05-13 23:00:00,
2013-05-13 19:05:00,50.1,30.6,29.98,North,355,1.0,4.0,47,0.00,,,0.00,Wunderground v.1.13,2013-05-13 23:05:00,
2013-05-13 19:10:00,49.8,30.9,29.98,North,355,0.0,4.0,48,0.00,,,0.00,Wunderground v.1.13,2013-05-13 23:10:00,
2013-05-13 19:15:00,49.7,30.8,29.99,North,355,0.0,4.0,48,0.00,,,0.00,Wunderground v.1.13,2013-05-13 23:15:00,
2013-05-13 19:20:00,49.7,31.3,29.99,North,355,0.0,4.0,49,0.00,,,0.00,Wunderground v.1.13,2013-05-13 23:20:00,
2013-05-13 19:30:00,49.4,31.0,29.99,North,350,0.0,4.0,49,0.00,,,0.00,Wunderground v.1.13,2013-05-13 23:30:00,
2013-05-13 19:35:00,49.2,31.3,30.00,North,350,0.0,4.0,50,0.00,,,0.00,Wunderground v.1.13,2013-05-13 23:35:00,
2013-05-13 19:45:00,48.8,30.5,30.00,North,349,0.0,4.0,49,0.00,,,0.00,Wunderground v.1.13,2013-05-13 23:45:00,
2013-05-13 19:50:00,48.6,31.3,30.00,North,350,0.0,4.0,51,0.00,,,0.00,Wunderground v.1.13,2013-05-13 23:50:00,
2013-05-13 19:55:00,48.3,30.5,30.00,North,350,0.0,4.0,50,0.00,,,0.00,Wunderground v.1.13,2013-05-13 23:55:00,
2013-05-13 20:00:00,48.1,30.8,30.00,North,350,0.0,4.0,51,0.00,,,0.00,Wunderground v.1.13,2013-05-14 00:00:00,
2013-05-13 20:05:00,47.9,30.6,30.01,North,350,0.0,4.0,51,0.00,,,0.00,Wunderground v.1.13,2013-05-14 00:05:00,
2013-05-13 20:15:00,47.4,30.2,30.01,North,355,0.0,4.0,51,0.00,,,0.00,Wunderground v.1.13,2013-05-14 00:15:00,
2013-05-13 20:20:00,47.2,30.5,30.02,North,350,0.0,4.0,52,0.00,,,0.00,Wunderground v.1.13,2013-05-14 00:20:00,
2013-05-13 20:25:00,47.0,30.7,30.02,North,350,0.0,4.0,53,0.00,,,0.00,Wunderground v.1.13,2013-05-14 00:25:00,
2013-05-13 20:35:00,46.8,30.6,30.02,North,350,0.0,4.0,53,0.00,,,0.00,Wunderground v.1.13,2013-05-14 00:35:00,
2013-05-13 20:40:00,46.6,30.8,30.02,North,350,0.0,4.0,54,0.00,,,0.00,Wunderground v.1.13,2013-05-14 00:40:00,
2013-05-13 20:45:00,46.4,30.2,30.03,North,350,0.0,4.0,53,0.00,,,0.00,Wunderground v.1.13,2013-05-14 00:45:00,
2013-05-13 20:50:00,46.2,30.9,30.03,North,350,0.0,4.0,55,0.00,,,0.00,Wunderground v.1.13,2013-05-14 00:50:00,
2013-05-13 21:00:00,45.8,31.9,30.03,North,350,0.0,4.0,58,0.00,,,0.00,Wunderground v.1.13,2013-05-14 01:00:00,
2013-05-13 21:05:00,45.6,31.2,30.03,North,350,0.0,4.0,57,0.00,,,0.00,Wunderground v.1.13,2013-05-14 01:05:00,
2013-05-13 21:10:00,45.4,31.0,30.04,North,350,0.0,4.0,57,0.00,,,0.00,Wunderground v.1.13,2013-05-14 01:10:00,
2013-05-13 21:15:00,45.2,30.9,30.04,North,350,0.0,4.0,57,0.00,,,0.00,Wunderground v.1.13,2013-05-14 01:15:00,
2013-05-13 21:25:00,44.9,31.0,30.04,North,350,0.0,4.0,58,0.00,,,0.00,Wunderground v.1.13,2013-05-14 01:25:00,
2013-05-13 21:30:00,44.8,30.9,30.04,North,350,0.0,4.0,58,0.00,,,0.00,Wunderground v.1.13,2013-05-14 01:30:00,
2013-05-13 21:35:00,44.6,31.1,30.04,North,350,0.0,4.0,59,0.00,,,0.00,Wunderground v.1.13,2013-05-14 01:35:00,
2013-05-13 21:45:00,44.3,30.9,30.04,North,350,0.0,4.0,59,0.00,,,0.00,Wunderground v.1.13,2013-05-14 01:45:00,
2013-05-13 21:50:00,44.2,30.8,30.04,North,350,0.0,4.0,59,0.00,,,0.00,Wunderground v.1.13,2013-05-14 01:50:00,
2013-05-13 21:55:00,44.2,30.8,30.04,NNW,348,0.0,4.0,59,0.00,,,0.00,Wunderground v.1.13,2013-05-14 01:55:00,
2013-05-13 22:00:00,44.2,30.8,30.04,NNW,348,0.0,4.0,59,0.00,,,0.00,Wunderground v.1.13,2013-05-14 02:00:00,
2013-05-13 22:10:00,44.1,31.1,30.04,NNW,348,0.0,4.0,60,0.00,,,0.00,Wunderground v.1.13,2013-05-14 02:10:00,
2013-05-13 22:15:00,44.0,31.4,30.04,NNW,348,0.0,4.0,61,0.00,,,0.00,Wunderground v.1.13,2013-05-14 02:15:00,
2013-05-13 22:20:00,43.9,30.9,30.04,NNW,348,0.0,4.0,60,0.00,,,0.00,Wunderground v.1.13,2013-05-14 02:20:00,
2013-05-13 22:25:00,43.8,30.8,30.04,NNW,348,0.0,4.0,60,0.00,,,0.00,Wunderground v.1.13,2013-05-14 02:25:00,
2013-05-13 22:35:00,43.6,31.4,30.04,NNW,331,0.0,4.0,62,0.00,,,0.00,Wunderground v.1.13,2013-05-14 02:35:00,
2013-05-13 22:40:00,43.5,31.3,30.04,NNW,330,0.0,4.0,62,0.00,,,0.00,Wunderground v.1.13,2013-05-14 02:40:00,
2013-05-13 22:45:00,43.4,31.2,30.04,NNW,331,0.0,4.0,62,0.00,,,0.00,Wunderground v.1.13,2013-05-14 02:45:00,
2013-05-13 22:50:00,43.3,30.7,30.04,NNW,331,0.0,4.0,61,0.00,,,0.00,Wunderground v.1.13,2013-05-14 02:50:00,
2013-05-13 23:00:00,43.1,31.7,30.04,NNW,329,0.0,4.0,64,0.00,,,0.00,Wunderground v.1.13,2013-05-14 03:00:00,
2013-05-13 23:05:00,43.0,31.6,30.04,NNW,329,0.0,4.0,64,0.00,,,0.00,Wunderground v.1.13,2013-05-14 03:05:00,
2013-05-13 23:10:00,42.8,31.5,30.04,NNW,329,0.0,4.0,64,0.00,,,0.00,Wunderground v.1.13,2013-05-14 03:10:00,
2013-05-13 23:15:00,42.7,31.7,30.04,NNW,329,0.0,4.0,65,0.00,,,0.00,Wunderground v.1.13,2013-05-14 03:15:00,
2013-05-13 23:25:00,42.4,31.8,30.04,NNW,329,0.0,4.0,66,0.00,,,0.00,Wunderground v.1.13,2013-05-14 03:25:00,
2013-05-13 23:30:00,42.3,31.7,30.04,NNW,329,0.0,4.0,66,0.00,,,0.00,Wunderground v.1.13,2013-05-14 03:30:00,
2013-05-13 23:35:00,42.2,31.6,30.04,NNW,329,0.0,4.0,66,0.00,,,0.00,Wunderground v.1.13,2013-05-14 03:35:00,
2013-05-13 23:40:00,42.0,31.8,30.04,NNW,329,0.0,4.0,67,0.00,,,0.00,Wunderground v.1.13,2013-05-14 03:40:00,
2013-05-13 23:50:00,41.8,32.0,30.04,NNW,329,0.0,4.0,68,0.00,,,0.00,Wunderground v.1.13,2013-05-14 03:50:00,
2013-05-13 23:55:00,41.7,32.3,30.04,NNW,329,0.0,4.0,69,0.00,,,0.00,Wunderground v.1.13,2013-05-14 03:55:00,